Tracking 27188 objects as of 1-Apr-2023
HD Live streaming from Space Station
objects crossing your sky now

STARLINK-5643

Track STARLINK-5643 now!
10-day predictions
STARLINK-5643 is classified as:


NORAD ID: 55431
Int'l Code: 2023-014AS
Perigee: 364.3 km
Apogee: 368.3 km
Inclination: 70.0 °
Period: 91.7 minutes
Semi major axis: 6737 km
RCS: Unknown
Launch date: January 31, 2023
Source: United States (US)
Launch site: AIR FORCE WESTERN TEST RANGE (AFWTR)
Your satellite tracking list
Your tracking list is empty




NASA's NSSDC Master Catalog

Two Line Element Set (TLE):
1 55431U 23014AS  23091.00447791 -.00005313  00000-0 -42483-4 0  9994
2 55431  70.0002 282.9310 0002905 255.3428 104.7445 15.69905549  9512
Source of the keplerian elements: AFSPC